Weather History for Oelwein, IA

Change the Weather History Date:

Wednesday, October 24, 2012

  Actual Average Record
Temperature  
Mean Temperature 70 °F -  
Max Temperature 77 °F 58 °F 78 °F (1963)
Min Temperature 62 °F 38 °F 18 °F (1960)
Cooling Degree Days 4    
Growing Degree Days 20 (Base 50)    
Moisture  
Dew Point 62 °F    
Average Humidity 79    
Maximum Humidity 94    
Minimum Humidity 57    
Precipitation  
Precipitation 0.00 in - - ()
Sea Level Pressure  
Sea Level Pressure 29.77 in    
Wind  
Wind Speed 10 mph (South)    
Max Wind Speed 20 mph    
Max Gust Speed 28 mph    
Visibility 9 miles    
Events Rain    
Averages and records for this station are not official NWS values.
T = Trace of Precipitation, MM = Missing Value Source: NWS Daily Summary

Daily Weather History Graph

Daily Weather History Graph

Search for Another Location

Airport:

Trip Planner

Search our weather history database for the weather conditions in past years. The results will help you decide how hot, cold, wet, or windy it might be!

Date:

Astronomy

Oct. 24, 2012 Rise Set
Actual Time 7:32 AM CDT 6:10 PM CDT
Civil Twilight 7:03 AM CDT 6:39 PM CDT
Nautical Twilight 6:30 AM CDT 7:12 PM CDT
Astronomical Twilight 5:57 AM CDT 7:45 PM CDT
Moon 3:32 PM CDT (10/24) 2:21 AM CDT (10/24)
Length of Visible Light 11h 36m
Length of Day
10h 38m
Waxing Gibbous, 76% of the Moon is Illuminated
Oct 24
Waxing Gibbous
Oct 29
Full
Nov 6
Last Quarter
Nov 13
New
Nov 20
First Quarter

Hourly Weather History & Observations

Time (CDT) Temp. Dew Point Humidity Pressure Visibility Wind Dir Wind Speed Gust Speed Precip Events Conditions
12:12 AM 66.2 °F 62.6 °F 88% 29.80 in 10.0 mi SSE 11.5 mph - N/A   Clear
12:32 AM 66.2 °F 62.6 °F 88% 29.80 in 10.0 mi SSE 9.2 mph - N/A   Clear
12:52 AM 66.2 °F 62.6 °F 88% 29.81 in 10.0 mi SSE 9.2 mph - N/A   Clear
1:12 AM 66.2 °F 62.6 °F 88% 29.80 in 10.0 mi SSE 12.7 mph - N/A   Clear
1:32 AM 66.2 °F 62.6 °F 88% 29.81 in 10.0 mi SSE 10.4 mph - N/A   Clear
1:52 AM 66.2 °F 62.6 °F 88% 29.81 in 10.0 mi South 9.2 mph - N/A Rain Rain
2:12 AM 66.2 °F 62.6 °F 88% 29.82 in 10.0 mi SSE 8.1 mph - N/A   Scattered Clouds
2:15 AM 64.4 °F 60.8 °F 88% 29.82 in 10.0 mi SSE 10.4 mph - N/A   Scattered Clouds
2:32 AM 66.2 °F 62.6 °F 88% 29.81 in 10.0 mi South 9.2 mph - N/A   Clear
2:35 AM 64.4 °F 60.8 °F 88% 29.81 in 10.0 mi South 9.2 mph - N/A   Clear
2:52 AM 66.2 °F 62.6 °F 88% 29.81 in 10.0 mi South 9.2 mph - N/A   Clear
2:55 AM 64.4 °F 60.8 °F 88% 29.81 in 10.0 mi SSE 8.1 mph - N/A   Clear
3:12 AM 66.2 °F 62.6 °F 88% 29.80 in 10.0 mi SSE 9.2 mph - N/A   Clear
3:15 AM 64.4 °F 60.8 °F 88% 29.80 in 10.0 mi SSE 9.2 mph - N/A   Clear
3:32 AM 66.2 °F 62.6 °F 88% 29.80 in 10.0 mi South 8.1 mph - N/A   Clear
3:35 AM 64.4 °F 60.8 °F 88% 29.80 in 10.0 mi SSE 9.2 mph - N/A   Clear
3:52 AM 66.2 °F 62.6 °F 88% 29.80 in 10.0 mi SSE 9.2 mph - N/A   Clear
3:55 AM 64.4 °F 60.8 °F 88% 29.80 in 10.0 mi SSE 9.2 mph - N/A   Clear
4:12 AM 66.2 °F 62.6 °F 88% 29.80 in 10.0 mi South 8.1 mph - N/A   Clear
4:15 AM 64.4 °F 60.8 °F 88% 29.80 in 10.0 mi SSE 8.1 mph - N/A   Clear
4:32 AM 66.2 °F 62.6 °F 88% 29.80 in 10.0 mi South 9.2 mph - N/A   Clear
4:35 AM 64.4 °F 60.8 °F 88% 29.80 in 10.0 mi South 9.2 mph - N/A   Clear
4:52 AM 66.2 °F 62.6 °F 88% 29.80 in 10.0 mi South 8.1 mph - N/A   Clear
4:55 AM 64.4 °F 60.8 °F 88% 29.80 in 10.0 mi South 8.1 mph - N/A   Clear
5:12 AM 66.2 °F 62.6 °F 88% 29.81 in 10.0 mi South 6.9 mph - N/A   Clear
5:15 AM 64.4 °F 60.8 °F 88% 29.81 in 10.0 mi South 8.1 mph - N/A   Clear
5:32 AM 64.4 °F 62.6 °F 94% 29.81 in 7.0 mi South 6.9 mph - N/A   Clear
5:35 AM 64.4 °F 60.8 °F 88% 29.82 in 7.0 mi South 6.9 mph - N/A   Clear
5:52 AM 64.4 °F 62.6 °F 94% 29.82 in 7.0 mi South 6.9 mph - N/A   Clear
5:55 AM 64.4 °F 60.8 °F 88% 29.82 in 7.0 mi South 6.9 mph - N/A   Clear
6:12 AM 64.4 °F 62.6 °F 94% 29.82 in 7.0 mi SSE 8.1 mph - N/A   Clear
6:15 AM 64.4 °F 60.8 °F 88% 29.82 in 7.0 mi SSE 8.1 mph - N/A   Clear
6:32 AM 64.4 °F 62.6 °F 94% 29.83 in 7.0 mi South 6.9 mph - N/A   Clear
6:35 AM 64.4 °F 60.8 °F 88% 29.83 in 7.0 mi SSE 6.9 mph - N/A   Clear
6:52 AM 64.4 °F 62.6 °F 94% 29.83 in 7.0 mi SSE 6.9 mph - N/A   Clear
6:55 AM 64.4 °F 60.8 °F 88% 29.83 in 7.0 mi SSE 5.8 mph - N/A   Clear
7:12 AM 64.4 °F 62.6 °F 94% 29.83 in 7.0 mi SSE 6.9 mph - N/A   Clear
7:15 AM 62.6 °F 60.8 °F 94% 29.83 in 7.0 mi SSE 5.8 mph - N/A   Clear
7:32 AM 64.4 °F 62.6 °F 94% 29.83 in 5.0 mi SSE 5.8 mph - N/A   Clear
7:52 AM 64.4 °F 62.6 °F 94% 29.84 in 5.0 mi SSE 6.9 mph - N/A   Clear
7:55 AM 64.4 °F 60.8 °F 88% 29.84 in 5.0 mi SSE 8.1 mph - N/A   Clear
8:12 AM 64.4 °F 62.6 °F 94% 29.84 in 5.0 mi SSE 8.1 mph - N/A   Clear
8:15 AM 64.4 °F 60.8 °F 88% 29.84 in 5.0 mi SSE 8.1 mph - N/A   Clear
8:32 AM 64.4 °F 62.6 °F 94% 29.84 in 5.0 mi SSE 6.9 mph - N/A   Clear
8:53 AM 64.4 °F 62.6 °F 94% 29.83 in 4.0 mi SSE 9.2 mph - N/A   Clear
9:12 AM 64.4 °F 62.6 °F 94% 29.83 in 5.0 mi SSE 8.1 mph - N/A   Clear
9:32 AM 66.2 °F 62.6 °F 88% 29.83 in 5.0 mi SSE 8.1 mph - N/A   Scattered Clouds
9:35 AM 64.4 °F 62.6 °F 94% 29.83 in 5.0 mi SSE 8.1 mph - N/A   Scattered Clouds
9:52 AM 66.2 °F 62.6 °F 88% 29.83 in 7.0 mi SSE 8.1 mph - N/A   Scattered Clouds
10:12 AM 66.2 °F 62.6 °F 88% 29.81 in 7.0 mi SSE 10.4 mph - N/A   Mostly Cloudy
10:32 AM 69.8 °F 64.4 °F 83% 29.81 in 10.0 mi SSE 15.0 mph - N/A   Scattered Clouds
10:53 AM 69.8 °F 64.4 °F 83% 29.80 in 10.0 mi SSE 15.0 mph - N/A   Scattered Clouds
10:55 AM 68.0 °F 62.6 °F 83% 29.80 in 10.0 mi SSE 12.7 mph - N/A   Scattered Clouds
11:13 AM 69.8 °F 64.4 °F 83% 29.80 in 10.0 mi South 12.7 mph - N/A   Clear
11:15 AM 69.8 °F 62.6 °F 78% 29.80 in 10.0 mi South 12.7 mph - N/A   Clear
11:32 AM 71.6 °F 64.4 °F 78% 29.80 in 10.0 mi South 11.5 mph - N/A   Clear
11:35 AM 69.8 °F 62.6 °F 78% 29.80 in 10.0 mi South 11.5 mph - N/A   Clear
11:52 AM 71.6 °F 64.4 °F 78% 29.79 in 10.0 mi South 12.7 mph - N/A   Clear
12:12 PM 73.4 °F 64.4 °F 73% 29.78 in 10.0 mi South 13.8 mph - N/A   Clear
12:32 PM 73.4 °F 64.4 °F 73% 29.78 in 10.0 mi South 13.8 mph 18.4 mph N/A   Clear
12:35 PM 73.4 °F 62.6 °F 69% 29.77 in 10.0 mi South 11.5 mph 18.4 mph N/A   Clear
12:52 PM 75.2 °F 62.6 °F 65% 29.77 in 10.0 mi South 11.5 mph - N/A   Clear
12:55 PM 73.4 °F 62.6 °F 69% 29.77 in 10.0 mi South 12.7 mph - N/A   Clear
1:12 PM 75.2 °F 62.6 °F 65% 29.77 in 10.0 mi South 16.1 mph - N/A   Clear
1:15 PM 73.4 °F 62.6 °F 69% 29.77 in 10.0 mi South 13.8 mph - N/A   Clear
1:32 PM 75.2 °F 62.6 °F 65% 29.76 in 10.0 mi South 13.8 mph - N/A   Clear
1:35 PM 73.4 °F 62.6 °F 69% 29.76 in 10.0 mi South 15.0 mph - N/A   Clear
1:52 PM 75.2 °F 62.6 °F 65% 29.75 in 10.0 mi South 15.0 mph - N/A   Clear
2:12 PM 77.0 °F 62.6 °F 61% 29.74 in 10.0 mi South 17.3 mph 20.7 mph N/A   Clear
2:15 PM 77.0 °F 62.6 °F 61% 29.74 in 10.0 mi South 15.0 mph 20.7 mph N/A   Clear
2:32 PM 77.0 °F 62.6 °F 61% 29.73 in 10.0 mi South 16.1 mph - N/A   Clear
2:35 PM 77.0 °F 60.8 °F 57% 29.73 in 10.0 mi South 18.4 mph - N/A   Clear
2:52 PM 77.0 °F 62.6 °F 61% 29.73 in 10.0 mi South 13.8 mph - N/A   Clear
2:55 PM 75.2 °F 60.8 °F 61% 29.73 in 10.0 mi South 17.3 mph - N/A   Clear
3:12 PM 77.0 °F 62.6 °F 61% 29.72 in 10.0 mi South 13.8 mph - N/A   Clear
3:15 PM 77.0 °F 60.8 °F 57% 29.72 in 10.0 mi South 13.8 mph - N/A   Clear
3:32 PM 77.0 °F 62.6 °F 61% 29.72 in 10.0 mi South 19.6 mph 24.2 mph N/A   Clear
3:35 PM 77.0 °F 60.8 °F 57% 29.72 in 10.0 mi South 17.3 mph 24.2 mph N/A   Clear
3:52 PM 75.2 °F 62.6 °F 65% 29.72 in 10.0 mi SW 16.1 mph 25.3 mph N/A   Clear
4:12 PM 73.4 °F 60.8 °F 65% 29.73 in 10.0 mi SSW 18.4 mph 27.6 mph N/A   Clear
4:15 PM 73.4 °F 60.8 °F 65% 29.73 in 10.0 mi SSW 15.0 mph - N/A   Clear
4:32 PM 73.4 °F 60.8 °F 65% 29.74 in 10.0 mi SSW 15.0 mph 19.6 mph N/A   Clear
4:35 PM 71.6 °F 60.8 °F 69% 29.74 in 10.0 mi SSW 13.8 mph 19.6 mph N/A   Clear
4:52 PM 71.6 °F 60.8 °F 69% 29.73 in 10.0 mi SW 11.5 mph - N/A   Clear
4:55 PM 71.6 °F 60.8 °F 69% 29.74 in 10.0 mi SW 12.7 mph - N/A   Clear
5:13 PM 71.6 °F 60.8 °F 69% 29.74 in 10.0 mi SW 12.7 mph 19.6 mph N/A   Clear
5:15 PM 71.6 °F 59.0 °F 64% 29.74 in 10.0 mi SW 11.5 mph 19.6 mph N/A   Clear
5:32 PM 71.6 °F 60.8 °F 69% 29.74 in 10.0 mi SW 11.5 mph - N/A   Clear
5:35 PM 71.6 °F 59.0 °F 64% 29.74 in 10.0 mi SW 11.5 mph - N/A   Clear
5:52 PM 71.6 °F 60.8 °F 69% 29.74 in 10.0 mi SW 8.1 mph - N/A   Clear
5:55 PM 69.8 °F 59.0 °F 68% 29.74 in 10.0 mi SW 8.1 mph - N/A   Clear
6:12 PM 69.8 °F 60.8 °F 73% 29.74 in 10.0 mi SW 6.9 mph - N/A   Clear
6:15 PM 69.8 °F 59.0 °F 68% 29.74 in 10.0 mi SW 6.9 mph - N/A   Clear
6:35 PM 68.0 °F 59.0 °F 73% 29.74 in 10.0 mi SW 4.6 mph - N/A   Clear
6:52 PM 69.8 °F 60.8 °F 73% 29.73 in 10.0 mi SSW 3.5 mph - N/A   Clear
6:55 PM 68.0 °F 59.0 °F 73% 29.74 in 10.0 mi SSW 4.6 mph - N/A   Clear
7:12 PM 68.0 °F 60.8 °F 78% 29.74 in 10.0 mi South 4.6 mph - N/A   Clear
7:32 PM 66.2 °F 60.8 °F 83% 29.74 in 10.0 mi SSE 4.6 mph - N/A   Clear
7:35 PM 66.2 °F 59.0 °F 78% 29.74 in 10.0 mi SE 4.6 mph - N/A   Clear
7:52 PM 66.2 °F 60.8 °F 83% 29.73 in 10.0 mi SE 5.8 mph - N/A   Clear
7:55 PM 66.2 °F 59.0 °F 78% 29.73 in 10.0 mi SE 6.9 mph - N/A   Clear
8:12 PM 66.2 °F 60.8 °F 83% 29.73 in 10.0 mi SE 6.9 mph - N/A   Clear
8:15 PM 66.2 °F 60.8 °F 83% 29.73 in 10.0 mi SE 5.8 mph - N/A   Clear
8:32 PM 66.2 °F 60.8 °F 83% 29.72 in 10.0 mi SE 8.1 mph - N/A   Clear
8:35 PM 66.2 °F 60.8 °F 83% 29.72 in 10.0 mi SE 8.1 mph - N/A   Clear
8:52 PM 68.0 °F 60.8 °F 78% 29.71 in 10.0 mi SE 8.1 mph - N/A   Clear
8:55 PM 68.0 °F 60.8 °F 78% 29.71 in 10.0 mi SE 9.2 mph - N/A   Clear
9:12 PM 68.0 °F 60.8 °F 78% 29.70 in 10.0 mi SSE 10.4 mph - N/A   Clear
9:15 PM 68.0 °F 60.8 °F 78% 29.70 in 10.0 mi SSE 10.4 mph - N/A   Clear
9:32 PM 69.8 °F 62.6 °F 78% 29.70 in 10.0 mi SSE 11.5 mph - N/A   Clear
9:35 PM 68.0 °F 60.8 °F 78% 29.70 in 10.0 mi SSE 12.7 mph - N/A   Clear
9:52 PM 69.8 °F 62.6 °F 78% 29.69 in 10.0 mi South 12.7 mph 18.4 mph N/A   Clear
9:55 PM 69.8 °F 60.8 °F 73% 29.69 in 10.0 mi SSE 12.7 mph - N/A   Clear
10:32 PM 69.8 °F 60.8 °F 73% 29.68 in 10.0 mi South 16.1 mph 20.7 mph N/A   Clear
10:35 PM 68.0 °F 60.8 °F 78% 29.68 in 10.0 mi South 16.1 mph 21.9 mph N/A   Clear
10:52 PM 69.8 °F 60.8 °F 73% 29.68 in 10.0 mi South 16.1 mph 21.9 mph N/A   Clear
10:55 PM 68.0 °F 60.8 °F 78% 29.68 in 10.0 mi South 17.3 mph - N/A   Clear
11:12 PM 69.8 °F 60.8 °F 73% 29.68 in 10.0 mi South 17.3 mph - N/A   Clear
11:15 PM 68.0 °F 60.8 °F 78% 29.68 in 10.0 mi South 13.8 mph - N/A   Clear
11:52 PM 68.0 °F 60.8 °F 78% 29.67 in 10.0 mi South 15.0 mph - N/A   Clear